Location: Arroyo de Fuente Vieja
(40.4902°N, 4.1175°W)
Time: 17:36:02
(UTC+00:00)

CZ-4C R/B - Pass Details

Date: 18 April 2024
Orbit: 530 x 1463 km, 63.4° (Epoch: 23 May)

Event Time Altitude Azimuth Distance (km) Brightness Sun altitude
Rises 20:29:47 0° 331° (NNW) 3,702 6.6 -16.6°
Reaches altitude 10° 20:32:39 10° 343° (NNW) 2,901 5.7 -17.1°
Maximum altitude 20:38:34 28° 40° (NE) 2,133 4.2 -18.0°
Enters shadow 20:43:11 17° 85° (E) 2,832 4.5 -18.7°
